Regional Weather Roundup
Issued by NWS

Home | Current Version | Previous Version | Graphics & Text | Print | Product List | Glossary On
Versions: 1 2 3 4 5 6 7 8 9 10 11 12 13 14 15 16 17 18 19 20 21 22 23 24 25 26 27 28 29 30 31 32 33 34 35 36 37 38 39 40 41 42 43 44 45 46 47 48 49 50
000
ASUS43 KFSD 042102
RWRSD

WEATHER ROUNDUP FOR SOUTH DAKOTA
NATIONAL WEATHER SERVICE SIOUX FALLS SD
400 PM CDT SAT JUL 04 2015

NOTE: "FAIR" INDICATES FEW OR NO CLOUDS BELOW 12,000 FEET WITH NO
SIGNIFICANT WEATHER AND/OR OBSTRUCTIONS TO VISIBILITY.


SDZ001>005-009-010-012>017-042200-
NORTHWEST AND NORTH CENTRAL SOUTH DAKOTA

CITY           SKY/WX    TMP DP  RH WIND       PRES   REMARKS
BUFFALO          N/A     91  54  28 VRB7      29.74F
FAITH            N/A     89  67  47 S17       29.78F
MOBRIDGE       MOSUNNY   88  71  57 SE15      29.75F
$$

SDZ012>016-024>037-041>051-057-063-072>074-042200-
SOUTHWEST AND SOUTH CENTRAL SOUTH DAKOTA

CITY           SKY/WX    TMP DP  RH WIND       PRES   REMARKS
RAPID CTY ARPT SUNNY     88  64  44 VRB5      29.83F
PIERRE         MOSUNNY   90  66  45 S17       29.76F
CUSTER         PTSUNNY   80  62  54 E10       30.00S
ELLSWORTH AFB  SUNNY     89  60  38 SE6       29.83F
PHILIP         MOSUNNY   94  66  39 S9        29.76F HX  97
PINE RIDGE     SUNNY     88  65  46 S16       29.84F
WINNER         FAIR      93  59  31 S16G29    29.82F
$$

SDZ004>011-016>023-039-040-042200-
NORTHEAST SOUTH DAKOTA

CITY           SKY/WX    TMP DP  RH WIND       PRES   REMARKS
ABERDEEN       SUNNY     86  68  54 S13       29.81F
WATERTOWN      MOSUNNY   84  65  52 S16       29.88S
BROOKINGS      MOSUNNY   81  63  54 S16       29.92S
SISSETON         N/A     87  64  46 SW12      29.83F
$$

SDZ017-020-022-023-036>040-048>070-042200-
SOUTHEAST SOUTH DAKOTA

CITY           SKY/WX    TMP DP  RH WIND       PRES   REMARKS
SIOUX FALLS    CLOUDY    82  65  56 S9        29.91F
HURON          SUNNY     85  65  51 S17G26    29.83F
MITCHELL       SUNNY     84  65  52 S16G25    29.86F
YANKTON        PTSUNNY   81  64  57 S20       29.88F
$$

ABBREVIATIONS USED IN REMARKS
   TC - TEMPERATURE IN CELSIUS
  WCI - WIND CHILL INDEX
   HX - HEAT INDEX
  VSB - VISIBILITY




USA.gov is the U.S. government's official web portal to all federal, state and local government web resources and services.